Weather History for Bentonville, AR

Change the Weather History Date:

Tuesday, November 22, 2011

  Actual Average Record
Temperature  
Mean Temperature 45 °F -  
Max Temperature 48 °F 56 °F 75 °F (1955)
Min Temperature 42 °F 32 °F 13 °F (1964)
Degree Days  
Heating Degree Days 20    
Moisture  
Dew Point 43 °F    
Average Humidity 91    
Maximum Humidity 93    
Minimum Humidity 87    
Precipitation  
Precipitation 0.01 in - - ()
Sea Level Pressure  
Sea Level Pressure 29.99 in    
Wind  
Wind Speed 9 mph (NW)    
Max Wind Speed 16 mph    
Max Gust Speed 22 mph    
Visibility 7 miles    
Events      
Averages and records for this station are not official NWS values.
T = Trace of Precipitation, MM = Missing Value Source: NWS Daily Summary

Daily Weather History Graph

Daily Weather History Graph

Search for Another Location

Airport:

Trip Planner

Search our weather history database for the weather conditions in past years. The results will help you decide how hot, cold, wet, or windy it might be!

Date:

Astronomy

Nov. 22, 2011 Rise Set
Actual Time 7:00 AM CST 5:04 PM CST
Civil Twilight 6:33 AM CST 5:32 PM CST
Nautical Twilight 6:01 AM CST 6:03 PM CST
Astronomical Twilight 5:30 AM CST 6:34 PM CST
Moon 3:55 AM CST (11/22) 3:01 PM CST (11/22)
Length of Visible Light 10h 59m
Length of Day
10h 03m
Waning Crescent, 9% of the Moon is Illuminated
Nov 22
Waning Crescent
Nov 25
New
Dec 2
First Quarter
Dec 10
Full
Dec 17
Last Quarter

Hourly Weather History & Observations

Time (CST) Temp. Windchill Dew Point Humidity Pressure Visibility Wind Dir Wind Speed Gust Speed Precip Events Conditions
12:15 AM 46.4 °F 39.8 °F 44.6 °F 93% 29.89 in 10.0 mi NE 16.1 mph - N/A   Overcast
12:35 AM 46.4 °F 40.1 °F 44.6 °F 93% 29.88 in 10.0 mi NE 15.0 mph 19.6 mph N/A   Overcast
12:55 AM 46.4 °F 41.1 °F 44.6 °F 93% 29.88 in 8.0 mi NE 11.5 mph 21.9 mph 0.01 in   Overcast
1:15 AM 46.4 °F 40.1 °F 44.6 °F 93% 29.85 in 10.0 mi ENE 15.0 mph - N/A   Overcast
1:35 AM 46.4 °F 41.9 °F 44.6 °F 93% 29.85 in 10.0 mi ENE 9.2 mph - N/A   Scattered Clouds
1:55 AM 46.4 °F 41.5 °F 44.6 °F 93% 29.83 in 10.0 mi East 10.4 mph - N/A   Scattered Clouds
2:15 AM 48.2 °F - 46.4 °F 93% 29.85 in 10.0 mi East 4.6 mph - N/A   Mostly Cloudy
2:35 AM 48.2 °F - 46.4 °F 93% 29.86 in 10.0 mi West 10.4 mph - N/A   Overcast
2:55 AM 46.4 °F 43.5 °F 44.6 °F 93% 29.85 in 10.0 mi NW 5.8 mph - N/A   Overcast
3:15 AM 46.4 °F 43.5 °F 44.6 °F 93% 29.85 in 10.0 mi NW 5.8 mph - N/A   Overcast
3:35 AM 46.4 °F 44.3 °F 44.6 °F 93% 29.84 in 10.0 mi NW 4.6 mph - N/A   Overcast
3:55 AM 46.4 °F 42.9 °F 44.6 °F 93% 29.84 in 10.0 mi NNW 6.9 mph - N/A   Overcast
4:15 AM 46.4 °F 41.1 °F 44.6 °F 93% 29.86 in 7.0 mi NW 11.5 mph - N/A   Overcast
4:35 AM 46.4 °F 40.7 °F 44.6 °F 93% 29.87 in 0.8 mi WNW 12.7 mph 17.3 mph N/A   Overcast
4:55 AM 44.6 °F 38.4 °F 42.8 °F 93% 29.88 in 1.5 mi WNW 12.7 mph 16.1 mph N/A   Overcast
5:15 AM 44.6 °F 38.4 °F 42.8 °F 93% 29.90 in 0.8 mi NW 12.7 mph - N/A   Overcast
5:55 AM 44.6 °F 39.7 °F 42.8 °F 93% 29.91 in 4.0 mi NW 9.2 mph - N/A   Overcast
6:15 AM 44.6 °F 40.2 °F 41.0 °F 87% 29.91 in 4.0 mi NNW 8.1 mph - N/A   Overcast
6:35 AM 42.8 °F 39.3 °F 41.0 °F 93% 29.91 in 6.0 mi North 5.8 mph - N/A   Overcast
6:55 AM 42.8 °F 38.0 °F 41.0 °F 93% 29.92 in 10.0 mi North 8.1 mph - N/A   Overcast
7:15 AM 42.8 °F 38.6 °F 41.0 °F 93% 29.94 in 9.0 mi NNW 6.9 mph - N/A   Overcast
7:35 AM 42.8 °F 40.1 °F 41.0 °F 93% 29.94 in 10.0 mi NNW 4.6 mph - N/A   Overcast
7:55 AM 44.6 °F 41.4 °F 41.0 °F 87% 29.95 in 4.0 mi NNW 5.8 mph - N/A   Overcast
8:15 AM 44.6 °F - 41.0 °F 87% 29.96 in 4.0 mi Calm Calm - N/A   Overcast
8:35 AM 44.6 °F 43.1 °F 42.8 °F 93% 29.96 in 10.0 mi NW 3.5 mph - N/A   Overcast
9:15 AM 44.6 °F - 42.8 °F 93% 29.97 in 10.0 mi Calm Calm - N/A   Overcast
9:35 AM 44.6 °F 42.2 °F 42.8 °F 93% 29.98 in 10.0 mi NNW 4.6 mph - N/A   Overcast
9:55 AM 44.6 °F 42.2 °F 42.8 °F 93% 29.98 in 10.0 mi NNW 4.6 mph - N/A   Overcast
10:15 AM 46.4 °F 43.5 °F 42.8 °F 87% 29.98 in 10.0 mi NNW 5.8 mph - N/A   Overcast
10:35 AM 46.4 °F 43.5 °F 42.8 °F 87% 29.99 in 10.0 mi NNW 5.8 mph - N/A   Overcast
10:55 AM 46.4 °F 43.5 °F 42.8 °F 87% 29.99 in 10.0 mi NNW 5.8 mph - N/A   Overcast
11:35 AM 46.4 °F 41.9 °F 44.6 °F 93% 29.99 in 10.0 mi NW 9.2 mph - N/A   Overcast
11:55 AM 46.4 °F 41.5 °F 44.6 °F 93% 29.99 in 10.0 mi NNW 10.4 mph - N/A   Overcast
12:15 PM 46.4 °F 42.4 °F 42.8 °F 87% 29.99 in 10.0 mi North 8.1 mph - N/A   Overcast
12:35 PM 46.4 °F 42.9 °F 42.8 °F 87% 29.99 in 10.0 mi NNW 6.9 mph - N/A   Overcast
12:55 PM 48.2 °F - 44.6 °F 87% 29.99 in 10.0 mi NW 5.8 mph - N/A   Overcast
1:35 PM 46.4 °F 41.9 °F 44.6 °F 93% 30.00 in 3.0 mi WNW 9.2 mph - N/A   Overcast
1:55 PM 46.4 °F 42.9 °F 44.6 °F 93% 30.00 in 5.0 mi WNW 6.9 mph - N/A   Overcast
2:15 PM 46.4 °F 42.4 °F 42.8 °F 87% 30.00 in 3.0 mi NW 8.1 mph - N/A   Overcast
2:35 PM 46.4 °F 41.9 °F 42.8 °F 87% 30.00 in 5.0 mi NW 9.2 mph - N/A   Overcast
2:55 PM 46.4 °F 42.4 °F 42.8 °F 87% 30.00 in 10.0 mi NW 8.1 mph - N/A   Overcast
3:35 PM 46.4 °F 42.9 °F 42.8 °F 87% 30.02 in 9.0 mi NW 6.9 mph - N/A   Overcast
3:55 PM 46.4 °F 43.5 °F 42.8 °F 87% 30.03 in 10.0 mi NNW 5.8 mph - N/A   Overcast
4:15 PM 46.4 °F 41.9 °F 42.8 °F 87% 30.04 in 9.0 mi WNW 9.2 mph - N/A   Overcast
4:35 PM 46.4 °F 41.5 °F 42.8 °F 87% 30.05 in 8.0 mi WNW 10.4 mph - N/A   Overcast
4:55 PM 44.6 °F 39.7 °F 42.8 °F 93% 30.05 in 6.0 mi NW 9.2 mph - N/A   Overcast
5:35 PM 44.6 °F 39.7 °F 42.8 °F 93% 30.08 in 8.0 mi NW 9.2 mph - N/A   Overcast
5:55 PM 44.6 °F 40.2 °F 41.0 °F 87% 30.09 in 5.0 mi NNW 8.1 mph - N/A   Overcast
6:15 PM 44.6 °F 40.2 °F 42.8 °F 93% 30.09 in 5.0 mi NW 8.1 mph - N/A   Overcast
6:35 PM 44.6 °F 41.4 °F 42.8 °F 93% 30.10 in 6.0 mi NW 5.8 mph - N/A   Overcast
6:55 PM 44.6 °F 42.2 °F 42.8 °F 93% 30.10 in 5.0 mi WNW 4.6 mph - N/A   Overcast
7:15 PM 44.6 °F 41.4 °F 42.8 °F 93% 30.10 in 6.0 mi WNW 5.8 mph - N/A   Overcast
7:35 PM 44.6 °F 41.4 °F 42.8 °F 93% 30.11 in 7.0 mi NW 5.8 mph - N/A   Overcast
7:55 PM 44.6 °F 41.4 °F 42.8 °F 93% 30.12 in 5.0 mi WNW 5.8 mph - N/A   Overcast
8:15 PM 44.6 °F 40.7 °F 41.0 °F 87% 30.13 in 8.0 mi NW 6.9 mph - N/A   Overcast
8:35 PM 44.6 °F 42.2 °F 41.0 °F 87% 30.13 in 8.0 mi WNW 4.6 mph - N/A   Overcast
9:15 PM 44.6 °F 43.1 °F 41.0 °F 87% 30.14 in 7.0 mi WNW 3.5 mph - N/A   Overcast
9:35 PM 44.6 °F 41.4 °F 41.0 °F 87% 30.16 in 5.0 mi WNW 5.8 mph - N/A   Overcast
9:55 PM 44.6 °F 43.1 °F 42.8 °F 93% 30.16 in 4.0 mi NW 3.5 mph - N/A   Overcast
10:15 PM 44.6 °F - 42.8 °F 93% 30.16 in 4.0 mi Calm Calm - N/A   Overcast
10:35 PM 44.6 °F - 42.8 °F 93% 30.16 in 5.0 mi Calm Calm - N/A   Overcast
10:55 PM 44.6 °F 41.4 °F 41.0 °F 87% 30.16 in 5.0 mi WNW 5.8 mph - N/A   Overcast
11:15 PM 44.6 °F 42.2 °F 41.0 °F 87% 30.18 in 6.0 mi WNW 4.6 mph - N/A   Overcast
11:35 PM 44.6 °F 42.2 °F 41.0 °F 87% 30.18 in 5.0 mi WNW 4.6 mph - N/A   Overcast
11:55 PM 44.6 °F 40.2 °F 41.0 °F 87% 30.18 in 5.0 mi WNW 8.1 mph - N/A   Overcast